Location: Ellerstadt
(49.4644°N, 8.2615°E)
Time: 04:54:42
(UTC+00:00)

Meteor 1-18 Rocket - Pass Details

Date: 03 March 2021
Orbit: 836 x 909 km, 81.2° (Epoch: 11 April)

Event Time Altitude Azimuth Distance (km) Brightness Sun altitude
Rises 17:46:48 0° 349° (N) 3,550 7.5 -6.3°
Reaches altitude 10° 17:49:20 10° 354° (N) 2,607 6.8 -6.7°
Maximum altitude 17:55:14 61° 74° (ENE) 1,027 4.4 -7.6°
Drops below altitude 10° 18:01:04 10° 155° (SSE) 2,576 6.5 -8.6°
Sets 18:03:32 0° 159° (SSE) 3,506 7.2 -9.0°
